Вернуться в каталог

THORAD AGENA D DEB

АктивенLEO
NORAD 5794·DEBRIS·🇺🇸 United States

Запущен Sep 30, 1969 с Vandenberg Space Force Base

Loading…

Ближайшие Пролёты (ближайшие 24 часа)

TLE

СвежийSource: Space-Track

Эпоха: Sep 13, 2026, 14:30 UTC

1  5794U 69082JW  26256.60438573  .00001779  00000-0  35187-3 0  9998
2  5794  69.9990  16.4951 0023088  46.5059 313.7996 14.63895622405334

Отслеживайте THORAD AGENA D DEB в реальном времени с AllMySat

Download on the App Store